Location: Condor
(52.3263°N, 114.5541°W)
Time: 01:23:28
(UTC+00:00)

SO-50 - Pass Details

Date: 08 December 2023
Orbit: 608 x 661 km, 64.6° (Epoch: 28 February)

Event Time Altitude Azimuth Distance (km) Brightness Sun altitude
Exits shadow 12:32:30 23° 12° (NNE) 1,375 ? -26.5°
Drops below altitude 10° 12:34:45 10° 34° (NE) 2,039 ? -26.1°
Sets 12:37:16 0° 45° (NE) 2,940 ? -25.7°
